TimeCST,TemperatureF,Dew PointF,Humidity,Sea Level PressureIn,VisibilityMPH,Wind Direction,Wind SpeedMPH,Gust SpeedMPH,PrecipitationIn,Events,Conditions,WindDirDegrees,DateUTC
12:53 AM,71.1,64.9,81,30.10,9.0,South,9.2,-,N/A,,Overcast,170,2012-11-12 06:53:00
1:53 AM,71.1,66.0,84,30.09,9.0,South,10.4,-,N/A,,Mostly Cloudy,170,2012-11-12 07:53:00
2:53 AM,71.1,66.0,84,30.09,8.0,South,8.1,-,N/A,,Mostly Cloudy,170,2012-11-12 08:53:00
3:04 AM,71.6,66.2,83,30.10,9.0,South,6.9,-,N/A,,Overcast,170,2012-11-12 09:04:00
3:53 AM,71.1,66.9,87,30.09,6.0,South,11.5,-,0.00,Rain,Light Rain,190,2012-11-12 09:53:00
4:53 AM,70.0,66.9,90,30.11,10.0,South,11.5,-,0.01,,Overcast,190,2012-11-12 10:53:00
5:17 AM,69.8,66.2,88,30.13,2.0,South,16.1,-,0.06,Rain,Rain,190,2012-11-12 11:17:00
5:29 AM,69.8,66.2,88,30.13,4.0,South,11.5,-,0.06,Rain,Light Rain,170,2012-11-12 11:29:00
5:53 AM,69.1,66.9,93,30.12,10.0,South,10.4,-,0.07,,Overcast,190,2012-11-12 11:53:00
6:13 AM,62.6,60.8,94,30.18,10.0,NNW,26.5,32.2,N/A,,Overcast,340,2012-11-12 12:13:00
6:20 AM,62.6,59.0,88,30.18,4.0,North,27.6,38.0,0.00,Rain,Rain,350,2012-11-12 12:20:00
6:28 AM,60.8,59.0,94,30.19,3.0,North,28.8,36.8,0.01,Rain,Light Rain,350,2012-11-12 12:28:00
6:53 AM,60.1,57.0,90,30.19,4.0,North,28.8,39.1,0.03,,Overcast,360,2012-11-12 12:53:00
7:03 AM,59.0,57.2,94,30.22,1.8,North,26.5,35.7,0.01,Rain,Light Rain,350,2012-11-12 13:03:00
7:30 AM,57.2,55.4,94,30.24,2.0,North,27.6,33.4,0.06,,Overcast,360,2012-11-12 13:30:00
7:46 AM,57.2,53.6,88,30.25,3.0,North,27.6,36.8,0.06,,Overcast,10,2012-11-12 13:46:00
7:50 AM,57.2,55.4,94,30.25,1.8,NNE,28.8,-,0.08,,Overcast,20,2012-11-12 13:50:00
7:53 AM,57.9,54.0,87,30.24,1.5,North,27.6,35.7,0.08,,Overcast,10,2012-11-12 13:53:00
8:06 AM,57.2,53.6,88,30.27,1.8,NNE,28.8,33.4,0.01,,Overcast,20,2012-11-12 14:06:00
8:24 AM,57.2,53.6,88,30.27,3.0,NNE,23.0,-,0.02,,Haze,30,2012-11-12 14:24:00
8:53 AM,59.0,51.1,75,30.27,10.0,NNE,19.6,-,0.02,Rain,Light Rain,20,2012-11-12 14:53:00
9:53 AM,60.1,51.1,72,30.27,10.0,NNE,17.3,-,0.00,,Overcast,20,2012-11-12 15:53:00
10:53 AM,61.0,51.1,70,30.27,10.0,North,13.8,-,N/A,,Overcast,10,2012-11-12 16:53:00
11:53 AM,61.0,51.1,70,30.26,10.0,North,16.1,-,N/A,,Overcast,10,2012-11-12 17:53:00
12:53 PM,62.1,50.0,65,30.25,10.0,North,18.4,-,N/A,,Overcast,10,2012-11-12 18:53:00
1:53 PM,61.0,50.0,67,30.24,10.0,North,18.4,-,N/A,,Overcast,10,2012-11-12 19:53:00
2:53 PM,61.0,51.1,70,30.24,10.0,North,18.4,-,N/A,,Overcast,10,2012-11-12 20:53:00
3:53 PM,61.0,51.1,70,30.24,10.0,NNE,19.6,-,N/A,,Overcast,20,2012-11-12 21:53:00
4:53 PM,61.0,51.1,70,30.26,10.0,North,19.6,-,N/A,,Overcast,10,2012-11-12 22:53:00
5:53 PM,61.0,50.0,67,30.29,10.0,North,21.9,25.3,N/A,,Mostly Cloudy,360,2012-11-12 23:53:00
6:53 PM,59.0,50.0,72,30.31,10.0,North,26.5,31.1,N/A,,Clear,10,2012-11-13 00:53:00
7:53 PM,57.0,46.9,69,30.33,10.0,North,25.3,34.5,N/A,,Clear,10,2012-11-13 01:53:00
8:53 PM,55.0,46.0,72,30.34,10.0,NNE,24.2,32.2,N/A,,Clear,20,2012-11-13 02:53:00
9:53 PM,55.0,44.1,67,30.34,10.0,NNE,26.5,32.2,N/A,,Clear,30,2012-11-13 03:53:00
10:53 PM,54.0,43.0,66,30.34,10.0,NE,24.2,31.1,N/A,,Clear,40,2012-11-13 04:53:00
11:53 PM,52.0,42.1,69,30.35,10.0,NE,21.9,-,N/A,,Clear,40,2012-11-13 05:53:00